CZ-2C R/B (28222 NORAD) Tracking and Keplerian Element Data

This shows tracking and keplerian element data for the satellite.

Feedback or suggestion? Click here.




ElementValue
Catalog28222
NameCZ-2C R/B
Epoch Orbit97318
Epoch Day15.92283105
Epoch Year2022
RAAN354.2561
Inclination97.7547
Eccentricity0.0045156
Argument of Perigee213.128
Mean Anonmoly199.5468
Mean Motion15.11430032
Decay Rate1.797E-05
L11 28222U 04012C 22015.92283105 .00001797 00000+0 10796-3 0 9992
L22 28222 97.7547 354.2561 0045156 213.1280 199.5468 15.11430032973181

Live tracking and technical data element details for CZ-2C R/B (NORAD 28222). CZ-2C R/B can be tracked NOW for your location showing map with azimuth and elevation plus other details from your city location.

Track the satellite on the map from your city or location and see movement details for azimuth, elevation, latitude, longitude, range, height, and movement on the map or in text.







IsCatalogInMostPopularTable: catalog: 28222, numindb: 444
Update: records affected: 1



GetName: 28222 CZ-2C R/B

Hit Count: updated at: Mon, 17 Jan 2022 01:35:43 GMT